Time,TemperatureF,DewpointF,PressureIn,WindDirection,WindDirectionDegrees,WindSpeedMPH,WindSpeedGustMPH,Humidity,HourlyPrecipIn,Conditions,Clouds,dailyrainin,SoftwareType,DateUTC
2013-01-23 00:00:00,43.9,7.5,-100.00,WSW,246,1.0,2.0,22,0.00,,,0.00,meteohub,2013-01-23 08:00:00,
2013-01-23 00:05:00,43.9,6.4,-100.00,WSW,246,1.0,2.0,21,0.00,,,0.00,meteohub,2013-01-23 08:05:00,
2013-01-23 00:10:00,44.1,6.6,-100.00,WSW,246,0.0,2.0,21,0.00,,,0.00,meteohub,2013-01-23 08:10:00,
2013-01-23 00:15:00,43.9,6.4,-100.00,WSW,246,1.0,2.0,21,0.00,,,0.00,meteohub,2013-01-23 08:15:00,
2013-01-23 00:20:00,43.9,7.5,-100.00,WSW,246,3.0,3.0,22,0.00,,,0.00,meteohub,2013-01-23 08:20:00,
2013-01-23 00:25:00,43.9,6.4,-100.00,WSW,246,3.0,3.0,21,0.00,,,0.00,meteohub,2013-01-23 08:25:00,
2013-01-23 00:30:00,43.7,6.3,-100.00,WSW,246,3.0,4.0,21,0.00,,,0.00,meteohub,2013-01-23 08:30:00,
2013-01-23 00:35:00,43.7,5.2,-100.00,WSW,246,2.0,4.0,20,0.00,,,0.00,meteohub,2013-01-23 08:35:00,
2013-01-23 00:40:00,43.7,6.3,-100.00,WSW,245,1.0,4.0,21,0.00,,,0.00,meteohub,2013-01-23 08:40:00,
2013-01-23 00:45:00,43.5,6.1,-100.00,WSW,245,0.0,3.0,21,0.00,,,0.00,meteohub,2013-01-23 08:45:00,
2013-01-23 00:50:00,43.5,6.1,-100.00,WSW,245,1.0,3.0,21,0.00,,,0.00,meteohub,2013-01-23 08:50:00,
2013-01-23 00:55:00,43.5,6.1,-100.00,WSW,245,0.0,3.0,21,0.00,,,0.00,meteohub,2013-01-23 08:55:00,
2013-01-23 01:00:00,43.3,6.1,-100.00,WSW,245,0.0,3.0,21,0.00,,,0.00,meteohub,2013-01-23 09:00:00,
2013-01-23 01:05:00,43.5,6.1,-100.00,WSW,245,1.0,2.0,21,0.00,,,0.00,meteohub,2013-01-23 09:05:00,
2013-01-23 01:10:00,44.1,5.5,-100.00,WSW,245,1.0,3.0,20,0.00,,,0.00,meteohub,2013-01-23 09:10:00,
2013-01-23 01:15:00,44.2,4.6,-100.00,WSW,245,0.0,3.0,19,0.00,,,0.00,meteohub,2013-01-23 09:15:00,
2013-01-23 01:20:00,43.9,4.3,-100.00,WSW,245,1.0,3.0,19,0.00,,,0.00,meteohub,2013-01-23 09:20:00,
2013-01-23 01:26:00,43.3,3.7,-100.00,WSW,245,1.0,2.0,19,0.00,,,0.00,meteohub,2013-01-23 09:26:00,
2013-01-23 01:31:00,43.0,4.6,-100.00,WSW,245,0.0,2.0,20,0.00,,,0.00,meteohub,2013-01-23 09:31:00,
2013-01-23 01:36:00,43.0,4.6,-100.00,WSW,245,2.0,2.0,20,0.00,,,0.00,meteohub,2013-01-23 09:36:00,
2013-01-23 01:41:00,43.0,3.6,-100.00,WSW,245,0.0,2.0,19,0.00,,,0.00,meteohub,2013-01-23 09:41:00,
2013-01-23 01:46:00,42.8,3.4,-100.00,WSW,245,0.0,2.0,19,0.00,,,0.00,meteohub,2013-01-23 09:46:00,
2013-01-23 01:51:00,42.8,4.5,-100.00,WSW,245,0.0,2.0,20,0.00,,,0.00,meteohub,2013-01-23 09:51:00,
2013-01-23 01:56:00,42.8,4.5,-100.00,WSW,245,0.0,1.0,20,0.00,,,0.00,meteohub,2013-01-23 09:56:00,
2013-01-23 02:01:00,42.8,4.5,-100.00,WSW,245,0.0,0.0,20,0.00,,,0.00,meteohub,2013-01-23 10:01:00,
2013-01-23 02:06:00,42.6,4.3,-100.00,WSW,245,0.0,0.0,20,0.00,,,0.00,meteohub,2013-01-23 10:06:00,
2013-01-23 02:11:00,42.4,4.1,-100.00,WSW,245,0.0,0.0,20,0.00,,,0.00,meteohub,2013-01-23 10:11:00,
2013-01-23 02:16:00,42.4,5.2,-100.00,WSW,245,0.0,0.0,21,0.00,,,0.00,meteohub,2013-01-23 10:16:00,
2013-01-23 02:22:00,42.4,4.1,-100.00,WSW,245,0.0,0.0,20,0.00,,,0.00,meteohub,2013-01-23 10:22:00,
2013-01-23 02:27:00,42.4,5.2,-100.00,WSW,245,0.0,0.0,21,0.00,,,0.00,meteohub,2013-01-23 10:27:00,
2013-01-23 02:32:00,42.3,6.1,-100.00,WSW,245,0.0,0.0,22,0.00,,,0.00,meteohub,2013-01-23 10:32:00,
2013-01-23 02:37:00,42.3,6.1,-100.00,WSW,245,0.0,0.0,22,0.00,,,0.00,meteohub,2013-01-23 10:37:00,
2013-01-23 02:42:00,42.3,6.1,-100.00,WSW,245,0.0,0.0,22,0.00,,,0.00,meteohub,2013-01-23 10:42:00,
2013-01-23 02:47:00,42.3,7.2,-100.00,WSW,245,0.0,0.0,23,0.00,,,0.00,meteohub,2013-01-23 10:47:00,
2013-01-23 02:52:00,42.1,5.9,-100.00,WSW,245,0.0,0.0,22,0.00,,,0.00,meteohub,2013-01-23 10:52:00,
2013-01-23 02:57:00,42.1,7.0,-100.00,WSW,245,0.0,0.0,23,0.00,,,0.00,meteohub,2013-01-23 10:57:00,
2013-01-23 03:02:00,42.1,7.0,-100.00,WSW,245,0.0,0.0,23,0.00,,,0.00,meteohub,2013-01-23 11:02:00,
2013-01-23 03:07:00,42.1,7.0,-100.00,WSW,245,0.0,0.0,23,0.00,,,0.00,meteohub,2013-01-23 11:07:00,
2013-01-23 03:12:00,42.1,5.9,-100.00,WSW,245,0.0,0.0,22,0.00,,,0.00,meteohub,2013-01-23 11:12:00,
2013-01-23 03:17:00,41.9,5.7,-100.00,WSW,245,0.0,0.0,22,0.00,,,0.00,meteohub,2013-01-23 11:17:00,
2013-01-23 03:22:00,41.4,5.4,-100.00,WSW,245,4.0,0.0,22,0.00,,,0.00,meteohub,2013-01-23 11:22:00,
2013-01-23 03:27:00,41.2,5.2,-100.00,WSW,246,4.0,5.0,22,0.00,,,0.00,meteohub,2013-01-23 11:27:00,
2013-01-23 03:32:00,42.1,5.0,-100.00,WSW,246,2.0,5.0,21,0.00,,,0.00,meteohub,2013-01-23 11:32:00,
2013-01-23 03:37:00,42.3,5.2,-100.00,WSW,246,3.0,5.0,21,0.00,,,0.00,meteohub,2013-01-23 11:37:00,
2013-01-23 03:42:00,42.1,5.0,-100.00,WSW,246,0.0,5.0,21,0.00,,,0.00,meteohub,2013-01-23 11:42:00,
2013-01-23 03:47:00,42.1,5.0,-100.00,WSW,246,0.0,4.0,21,0.00,,,0.00,meteohub,2013-01-23 11:47:00,
2013-01-23 03:52:00,42.1,5.9,-100.00,WSW,246,0.0,4.0,22,0.00,,,0.00,meteohub,2013-01-23 11:52:00,
2013-01-23 03:57:00,41.9,6.8,-100.00,WSW,246,0.0,1.0,23,0.00,,,0.00,meteohub,2013-01-23 11:57:00,
2013-01-23 04:02:00,41.7,7.5,-100.00,WSW,246,0.0,0.0,24,0.00,,,0.00,meteohub,2013-01-23 12:02:00,
2013-01-23 04:07:00,41.7,7.5,-100.00,WSW,246,0.0,0.0,24,0.00,,,0.00,meteohub,2013-01-23 12:07:00,
2013-01-23 04:12:00,41.5,8.2,-100.00,WSW,246,0.0,0.0,25,0.00,,,0.00,meteohub,2013-01-23 12:12:00,
2013-01-23 04:17:00,41.5,9.1,-100.00,WSW,246,0.0,1.0,26,0.00,,,0.00,meteohub,2013-01-23 12:17:00,
2013-01-23 04:23:00,41.5,8.2,-100.00,WSW,246,0.0,1.0,25,0.00,,,0.00,meteohub,2013-01-23 12:23:00,
2013-01-23 04:27:00,41.4,8.2,-100.00,WSW,246,0.0,1.0,25,0.00,,,0.00,meteohub,2013-01-23 12:27:00,
2013-01-23 04:32:00,41.4,8.2,-100.00,WSW,246,0.0,0.0,25,0.00,,,0.00,meteohub,2013-01-23 12:32:00,
2013-01-23 04:38:00,41.2,8.1,-100.00,WSW,246,0.0,0.0,25,0.00,,,0.00,meteohub,2013-01-23 12:38:00,
2013-01-23 04:43:00,41.2,7.2,-100.00,WSW,246,1.0,0.0,24,0.00,,,0.00,meteohub,2013-01-23 12:43:00,
2013-01-23 04:48:00,41.0,7.0,-100.00,WSW,246,1.0,2.0,24,0.00,,,0.00,meteohub,2013-01-23 12:48:00,
2013-01-23 04:53:00,41.2,7.2,-100.00,WSW,246,2.0,2.0,24,0.00,,,0.00,meteohub,2013-01-23 12:53:00,
2013-01-23 04:58:00,41.4,6.3,-100.00,WSW,246,0.0,2.0,23,0.00,,,0.00,meteohub,2013-01-23 12:58:00,
2013-01-23 05:03:00,41.4,5.4,-100.00,WSW,246,0.0,2.0,22,0.00,,,0.00,meteohub,2013-01-23 13:03:00,
2013-01-23 05:08:00,41.4,7.3,-100.00,WSW,246,0.0,2.0,24,0.00,,,0.00,meteohub,2013-01-23 13:08:00,
2013-01-23 05:13:00,41.4,8.2,-100.00,WSW,246,0.0,1.0,25,0.00,,,0.00,meteohub,2013-01-23 13:13:00,
2013-01-23 05:18:00,41.2,8.1,-100.00,WSW,246,0.0,1.0,25,0.00,,,0.00,meteohub,2013-01-23 13:18:00,
2013-01-23 05:23:00,41.2,9.0,-100.00,WSW,246,0.0,0.0,26,0.00,,,0.00,meteohub,2013-01-23 13:23:00,
2013-01-23 05:28:00,41.2,9.0,-100.00,WSW,246,0.0,0.0,26,0.00,,,0.00,meteohub,2013-01-23 13:28:00,
2013-01-23 05:33:00,40.8,10.2,-100.00,WSW,246,0.0,0.0,28,0.00,,,0.00,meteohub,2013-01-23 13:33:00,
2013-01-23 05:38:00,40.8,9.3,-100.00,WSW,246,0.0,0.0,27,0.00,,,0.00,meteohub,2013-01-23 13:38:00,
2013-01-23 05:43:00,40.8,9.3,-100.00,WSW,246,0.0,0.0,27,0.00,,,0.00,meteohub,2013-01-23 13:43:00,
2013-01-23 05:48:00,40.6,8.4,-100.00,WSW,246,0.0,0.0,26,0.00,,,0.00,meteohub,2013-01-23 13:48:00,
2013-01-23 05:53:00,40.8,7.7,-100.00,WSW,246,2.0,2.0,25,0.00,,,0.00,meteohub,2013-01-23 13:53:00,
2013-01-23 05:58:00,40.8,7.7,-100.00,WSW,246,1.0,2.0,25,0.00,,,0.00,meteohub,2013-01-23 13:58:00,
2013-01-23 06:03:00,40.8,8.6,-100.00,WSW,246,4.0,4.0,26,0.00,,,0.00,meteohub,2013-01-23 14:03:00,
2013-01-23 06:08:00,41.0,7.9,-100.00,WSW,245,3.0,4.0,25,0.00,,,0.00,meteohub,2013-01-23 14:08:00,
2013-01-23 06:13:00,41.4,8.2,-100.00,WSW,244,0.0,4.0,25,0.00,,,0.00,meteohub,2013-01-23 14:13:00,
2013-01-23 06:18:00,41.5,8.2,-100.00,WSW,244,1.0,4.0,25,0.00,,,0.00,meteohub,2013-01-23 14:18:00,
2013-01-23 06:23:00,42.1,7.9,-100.00,WSW,244,0.0,4.0,24,0.00,,,0.00,meteohub,2013-01-23 14:23:00,
2013-01-23 06:28:00,42.4,8.2,-100.00,WSW,244,1.0,3.0,24,0.00,,,0.00,meteohub,2013-01-23 14:28:00,
2013-01-23 06:33:00,42.4,8.2,-100.00,WSW,244,0.0,3.0,24,0.00,,,0.00,meteohub,2013-01-23 14:33:00,
2013-01-23 06:38:00,42.4,9.1,-100.00,WSW,244,2.0,3.0,25,0.00,,,0.00,meteohub,2013-01-23 14:38:00,
2013-01-23 06:43:00,42.8,8.4,-100.00,WSW,244,0.0,3.0,24,0.00,,,0.00,meteohub,2013-01-23 14:43:00,
2013-01-23 06:48:00,43.2,7.9,-100.00,WSW,244,0.0,3.0,23,0.00,,,0.00,meteohub,2013-01-23 14:48:00,
2013-01-23 06:53:00,43.3,8.1,-100.00,WSW,244,0.0,3.0,23,0.00,,,0.00,meteohub,2013-01-23 14:53:00,
2013-01-23 06:58:00,43.3,8.1,-100.00,WSW,244,1.0,1.0,23,0.00,,,0.00,meteohub,2013-01-23 14:58:00,
2013-01-23 07:03:00,43.5,7.2,-100.00,WSW,244,0.0,2.0,22,0.00,,,0.00,meteohub,2013-01-23 15:03:00,
2013-01-23 07:08:00,43.5,7.2,-100.00,WSW,244,0.0,2.0,22,0.00,,,0.00,meteohub,2013-01-23 15:08:00,
2013-01-23 07:13:00,43.7,7.3,-100.00,WSW,244,0.0,2.0,22,0.00,,,0.00,meteohub,2013-01-23 15:13:00,
2013-01-23 07:18:00,43.9,8.4,-100.00,WSW,244,0.0,1.0,23,0.00,,,0.00,meteohub,2013-01-23 15:18:00,
2013-01-23 07:23:00,44.1,9.5,-100.00,WSW,244,0.0,0.0,24,0.00,,,0.00,meteohub,2013-01-23 15:23:00,
2013-01-23 07:28:00,44.2,8.8,-100.00,WSW,244,0.0,0.0,23,0.00,,,0.00,meteohub,2013-01-23 15:28:00,
2013-01-23 07:33:00,44.4,15.6,-100.00,WSW,244,2.0,0.0,31,0.00,,,0.00,meteohub,2013-01-23 15:33:00,
2013-01-23 07:38:00,44.4,10.8,-100.00,WSW,244,0.0,3.0,25,0.00,,,0.00,meteohub,2013-01-23 15:38:00,
2013-01-23 07:43:00,44.4,10.8,-100.00,WSW,244,1.0,3.0,25,0.00,,,0.00,meteohub,2013-01-23 15:43:00,
2013-01-23 07:48:00,44.4,10.8,-100.00,WSW,244,0.0,3.0,25,0.00,,,0.00,meteohub,2013-01-23 15:48:00,
2013-01-23 07:53:00,44.4,11.7,-100.00,WSW,244,1.0,2.0,26,0.00,,,0.00,meteohub,2013-01-23 15:53:00,
2013-01-23 07:58:00,44.4,10.8,-100.00,WSW,244,0.0,2.0,25,0.00,,,0.00,meteohub,2013-01-23 15:58:00,
2013-01-23 08:03:00,44.4,10.8,-100.00,WSW,244,1.0,1.0,25,0.00,,,0.00,meteohub,2013-01-23 16:03:00,
2013-01-23 08:08:00,44.2,10.6,-100.00,WSW,244,2.0,2.0,25,0.00,,,0.00,meteohub,2013-01-23 16:08:00,
2013-01-23 08:13:00,44.1,9.5,-100.00,WSW,244,0.0,3.0,24,0.00,,,0.00,meteohub,2013-01-23 16:13:00,
2013-01-23 08:18:00,44.1,8.6,-100.00,WSW,244,0.0,3.0,23,0.00,,,0.00,meteohub,2013-01-23 16:18:00,
2013-01-23 08:24:00,44.2,8.8,-100.00,WSW,244,0.0,3.0,23,0.00,,,0.00,meteohub,2013-01-23 16:24:00,
2013-01-23 08:29:00,44.2,9.7,-100.00,WSW,244,0.0,2.0,24,0.00,,,0.00,meteohub,2013-01-23 16:29:00,
2013-01-23 08:34:00,44.2,8.8,-100.00,WSW,244,0.0,2.0,23,0.00,,,0.00,meteohub,2013-01-23 16:34:00,
2013-01-23 08:39:00,44.2,7.7,-100.00,WSW,244,0.0,2.0,22,0.00,,,0.00,meteohub,2013-01-23 16:39:00,
2013-01-23 08:44:00,44.4,7.9,-100.00,WSW,244,2.0,2.0,22,0.00,,,0.00,meteohub,2013-01-23 16:44:00,
2013-01-23 08:49:00,44.8,9.1,-100.00,WSW,244,2.0,2.0,23,0.00,,,0.00,meteohub,2013-01-23 16:49:00,
2013-01-23 08:54:00,45.0,8.4,-100.00,WSW,244,0.0,3.0,22,0.00,,,0.00,meteohub,2013-01-23 16:54:00,
2013-01-23 08:59:00,45.1,8.6,-100.00,WSW,244,0.0,3.0,22,0.00,,,0.00,meteohub,2013-01-23 16:59:00,
2013-01-23 09:04:00,45.9,11.1,-100.00,WSW,244,0.0,3.0,24,0.00,,,0.00,meteohub,2013-01-23 17:04:00,
2013-01-23 09:09:00,46.6,10.8,-100.00,WSW,244,0.0,1.0,23,0.00,,,0.00,meteohub,2013-01-23 17:09:00,
2013-01-23 09:14:00,46.8,9.9,-100.00,WSW,244,0.0,1.0,22,0.00,,,0.00,meteohub,2013-01-23 17:14:00,
2013-01-23 09:19:00,46.9,13.8,-100.00,WSW,244,0.0,1.0,26,0.00,,,0.00,meteohub,2013-01-23 17:19:00,
2013-01-23 09:24:00,47.1,10.2,-100.00,WSW,244,1.0,1.0,22,0.00,,,0.00,meteohub,2013-01-23 17:24:00,
2013-01-23 09:29:00,47.7,11.7,-100.00,WSW,244,1.0,1.0,23,0.00,,,0.00,meteohub,2013-01-23 17:29:00,
2013-01-23 09:34:00,48.0,9.9,-100.00,WSW,244,1.0,4.0,21,0.00,,,0.00,meteohub,2013-01-23 17:34:00,
2013-01-23 09:39:00,48.0,9.9,-100.00,WSW,244,1.0,4.0,21,0.00,,,0.00,meteohub,2013-01-23 17:39:00,
2013-01-23 09:44:00,48.2,9.0,-100.00,WSW,244,0.0,4.0,20,0.00,,,0.00,meteohub,2013-01-23 17:44:00,
2013-01-23 09:49:00,49.5,10.0,-100.00,WSW,244,0.0,2.0,20,0.00,,,0.00,meteohub,2013-01-23 17:49:00,
2013-01-23 09:54:00,50.4,10.8,-100.00,WSW,243,2.0,2.0,20,0.00,,,0.00,meteohub,2013-01-23 17:54:00,
2013-01-23 09:59:00,51.3,10.4,-100.00,WSW,243,1.0,2.0,19,0.00,,,0.00,meteohub,2013-01-23 17:59:00,
2013-01-23 10:04:00,51.8,12.0,-100.00,WSW,243,0.0,2.0,20,0.00,,,0.00,meteohub,2013-01-23 18:04:00,
2013-01-23 10:09:00,53.4,10.9,-100.00,WSW,243,2.0,3.0,18,0.00,,,0.00,meteohub,2013-01-23 18:09:00,
2013-01-23 10:14:00,54.0,10.0,-100.00,WSW,238,1.0,4.0,17,0.00,,,0.00,meteohub,2013-01-23 18:14:00,
2013-01-23 10:19:00,53.6,9.9,-100.00,WSW,238,0.0,5.0,17,0.00,,,0.00,meteohub,2013-01-23 18:19:00,
2013-01-23 10:24:00,54.9,10.8,-100.00,SW,236,3.0,5.0,17,0.00,,,0.00,meteohub,2013-01-23 18:24:00,
2013-01-23 10:29:00,55.2,9.9,-100.00,SW,235,1.0,5.0,16,0.00,,,0.00,meteohub,2013-01-23 18:29:00,
2013-01-23 10:34:00,55.4,8.4,-100.00,SW,235,0.0,4.0,15,0.00,,,0.00,meteohub,2013-01-23 18:34:00,
2013-01-23 10:39:00,54.3,9.1,-100.00,SW,236,1.0,4.0,16,0.00,,,0.00,meteohub,2013-01-23 18:39:00,
2013-01-23 10:44:00,54.3,9.1,-100.00,SW,236,2.0,4.0,16,0.00,,,0.00,meteohub,2013-01-23 18:44:00,
2013-01-23 10:45:00,54.5,9.1,-100.00,SW,236,1.0,2.0,16,0.00,,,0.00,meteohub,2013-01-23 18:45:00,
2013-01-23 10:52:00,54.7,9.3,-100.00,SW,236,1.0,2.0,16,0.00,,,0.00,meteohub,2013-01-23 18:52:00,
2013-01-23 10:57:00,55.4,9.9,-100.00,SW,236,0.0,2.0,16,0.00,,,0.00,meteohub,2013-01-23 18:57:00,
2013-01-23 11:02:00,55.2,9.9,-100.00,SW,236,2.0,2.0,16,0.00,,,0.00,meteohub,2013-01-23 19:02:00,
2013-01-23 11:07:00,55.8,10.2,-100.00,SW,236,2.0,3.0,16,0.00,,,0.00,meteohub,2013-01-23 19:07:00,
2013-01-23 11:12:00,56.1,10.6,-100.00,SW,236,1.0,3.0,16,0.00,,,0.00,meteohub,2013-01-23 19:12:00,
2013-01-23 11:17:00,57.4,11.5,-100.00,SW,236,2.0,3.0,16,0.00,,,0.00,meteohub,2013-01-23 19:17:00,
2013-01-23 11:22:00,57.4,10.0,-100.00,SW,236,1.0,4.0,15,0.00,,,0.00,meteohub,2013-01-23 19:22:00,
2013-01-23 11:27:00,56.7,10.9,-100.00,SW,236,2.0,4.0,16,0.00,,,0.00,meteohub,2013-01-23 19:27:00,
2013-01-23 11:32:00,56.5,10.8,-100.00,SW,236,1.0,4.0,16,0.00,,,0.00,meteohub,2013-01-23 19:32:00,
2013-01-23 11:37:00,56.8,11.1,-100.00,SW,236,3.0,4.0,16,0.00,,,0.00,meteohub,2013-01-23 19:37:00,
2013-01-23 11:42:00,58.1,10.6,-100.00,SW,236,2.0,4.0,15,0.00,,,0.00,meteohub,2013-01-23 19:42:00,
2013-01-23 11:47:00,58.3,10.8,-100.00,SW,236,1.0,4.0,15,0.00,,,0.00,meteohub,2013-01-23 19:47:00,
2013-01-23 11:52:00,58.5,9.5,-100.00,SW,236,1.0,4.0,14,0.00,,,0.00,meteohub,2013-01-23 19:52:00,
2013-01-23 11:57:00,58.6,9.5,-100.00,SW,236,3.0,4.0,14,0.00,,,0.00,meteohub,2013-01-23 19:57:00,
2013-01-23 12:02:00,59.2,10.0,-100.00,SW,236,1.0,4.0,14,0.00,,,0.00,meteohub,2013-01-23 20:02:00,
2013-01-23 12:07:00,59.0,9.9,-100.00,SW,236,0.0,4.0,14,0.00,,,0.00,meteohub,2013-01-23 20:07:00,
2013-01-23 12:12:00,58.6,9.5,-100.00,SW,236,0.0,4.0,14,0.00,,,0.00,meteohub,2013-01-23 20:12:00,
2013-01-23 12:17:00,58.6,9.5,-100.00,SW,236,0.0,3.0,14,0.00,,,0.00,meteohub,2013-01-23 20:17:00,
2013-01-23 12:22:00,59.4,10.2,-100.00,SW,236,0.0,2.0,14,0.00,,,0.00,meteohub,2013-01-23 20:22:00,
2013-01-23 12:27:00,59.5,8.6,-100.00,SW,236,0.0,2.0,13,0.00,,,0.00,meteohub,2013-01-23 20:27:00,
2013-01-23 12:32:00,59.2,10.0,-100.00,SW,236,0.0,1.0,14,0.00,,,0.00,meteohub,2013-01-23 20:32:00,
2013-01-23 12:37:00,59.0,9.9,-100.00,SW,236,2.0,2.0,14,0.00,,,0.00,meteohub,2013-01-23 20:37:00,
2013-01-23 12:42:00,59.0,9.9,-100.00,SW,236,3.0,3.0,14,0.00,,,0.00,meteohub,2013-01-23 20:42:00,
2013-01-23 12:47:00,58.6,9.5,-100.00,SW,236,2.0,4.0,14,0.00,,,0.00,meteohub,2013-01-23 20:47:00,
2013-01-23 12:52:00,58.8,9.7,-100.00,SW,236,1.0,4.0,14,0.00,,,0.00,meteohub,2013-01-23 20:52:00,
2013-01-23 12:57:00,58.8,9.7,-100.00,SW,236,1.0,4.0,14,0.00,,,0.00,meteohub,2013-01-23 20:57:00,
2013-01-23 13:02:00,58.6,9.5,-100.00,SW,236,0.0,4.0,14,0.00,,,0.00,meteohub,2013-01-23 21:02:00,
2013-01-23 13:07:00,58.3,9.3,-100.00,SW,236,4.0,4.0,14,0.00,,,0.00,meteohub,2013-01-23 21:07:00,
2013-01-23 13:12:00,58.3,9.3,-100.00,SW,236,1.0,4.0,14,0.00,,,0.00,meteohub,2013-01-23 21:12:00,
2013-01-23 13:17:00,58.5,9.5,-100.00,SW,236,3.0,4.0,14,0.00,,,0.00,meteohub,2013-01-23 21:17:00,
2013-01-23 13:22:00,58.8,9.7,-100.00,WSW,237,4.0,4.0,14,0.00,,,0.00,meteohub,2013-01-23 21:22:00,
2013-01-23 13:27:00,58.5,9.5,-100.00,WSW,239,3.0,4.0,14,0.00,,,0.00,meteohub,2013-01-23 21:27:00,
2013-01-23 13:32:00,58.6,9.5,-100.00,WSW,239,2.0,4.0,14,0.00,,,0.00,meteohub,2013-01-23 21:32:00,
2013-01-23 13:37:00,59.2,8.4,-100.00,WSW,239,0.0,4.0,13,0.00,,,0.00,meteohub,2013-01-23 21:37:00,
2013-01-23 13:42:00,59.7,8.8,-100.00,WSW,239,0.0,4.0,13,0.00,,,0.00,meteohub,2013-01-23 21:42:00,
2013-01-23 13:47:00,59.9,7.2,-100.00,WSW,240,0.0,3.0,12,0.00,,,0.00,meteohub,2013-01-23 21:47:00,
2013-01-23 13:52:00,59.5,8.6,-100.00,WSW,240,0.0,3.0,13,0.00,,,0.00,meteohub,2013-01-23 21:52:00,
2013-01-23 13:57:00,59.5,8.6,-100.00,WSW,240,1.0,3.0,13,0.00,,,0.00,meteohub,2013-01-23 21:57:00,
2013-01-23 14:02:00,59.4,8.4,-100.00,WSW,240,0.0,3.0,13,0.00,,,0.00,meteohub,2013-01-23 22:02:00,
2013-01-23 14:07:00,59.5,8.6,-100.00,WSW,240,0.0,2.0,13,0.00,,,0.00,meteohub,2013-01-23 22:07:00,
2013-01-23 14:12:00,59.7,8.8,-100.00,WSW,240,0.0,1.0,13,0.00,,,0.00,meteohub,2013-01-23 22:12:00,
2013-01-23 14:17:00,59.5,8.6,-100.00,WSW,240,1.0,1.0,13,0.00,,,0.00,meteohub,2013-01-23 22:17:00,
2013-01-23 14:22:00,59.7,8.8,-100.00,WSW,240,0.0,1.0,13,0.00,,,0.00,meteohub,2013-01-23 22:22:00,
2013-01-23 14:27:00,59.4,8.4,-100.00,WSW,240,0.0,2.0,13,0.00,,,0.00,meteohub,2013-01-23 22:27:00,
2013-01-23 14:32:00,59.0,8.2,-100.00,WSW,240,1.0,2.0,13,0.00,,,0.00,meteohub,2013-01-23 22:32:00,
2013-01-23 14:37:00,59.2,8.4,-100.00,WSW,240,0.0,3.0,13,0.00,,,0.00,meteohub,2013-01-23 22:37:00,
2013-01-23 14:42:00,59.4,8.4,-100.00,WSW,240,0.0,3.0,13,0.00,,,0.00,meteohub,2013-01-23 22:42:00,
2013-01-23 14:47:00,59.4,8.4,-100.00,WSW,240,1.0,3.0,13,0.00,,,0.00,meteohub,2013-01-23 22:47:00,
2013-01-23 14:52:00,59.4,8.4,-100.00,WSW,240,0.0,2.0,13,0.00,,,0.00,meteohub,2013-01-23 22:52:00,
2013-01-23 14:57:00,59.2,8.4,-100.00,WSW,240,0.0,2.0,13,0.00,,,0.00,meteohub,2013-01-23 22:57:00,
2013-01-23 15:02:00,59.2,8.4,-100.00,WSW,240,1.0,2.0,13,0.00,,,0.00,meteohub,2013-01-23 23:02:00,
2013-01-23 15:07:00,59.2,8.4,-100.00,WSW,240,0.0,3.0,13,0.00,,,0.00,meteohub,2013-01-23 23:07:00,
2013-01-23 15:12:00,59.4,8.4,-100.00,WSW,240,0.0,3.0,13,0.00,,,0.00,meteohub,2013-01-23 23:12:00,
2013-01-23 15:17:00,59.2,8.4,-100.00,WSW,240,0.0,3.0,13,0.00,,,0.00,meteohub,2013-01-23 23:17:00,
2013-01-23 15:22:00,59.2,8.4,-100.00,WSW,240,0.0,2.0,13,0.00,,,0.00,meteohub,2013-01-23 23:22:00,
2013-01-23 15:27:00,59.2,8.4,-100.00,WSW,240,0.0,2.0,13,0.00,,,0.00,meteohub,2013-01-23 23:27:00,
2013-01-23 15:32:00,59.2,8.4,-100.00,WSW,240,0.0,1.0,13,0.00,,,0.00,meteohub,2013-01-23 23:32:00,
2013-01-23 15:37:00,59.2,8.4,-100.00,WSW,240,0.0,0.0,13,0.00,,,0.00,meteohub,2013-01-23 23:37:00,
2013-01-23 15:42:00,59.2,8.4,-100.00,WSW,240,0.0,0.0,13,0.00,,,0.00,meteohub,2013-01-23 23:42:00,
2013-01-23 15:47:00,59.2,10.0,-100.00,WSW,240,0.0,2.0,14,0.00,,,0.00,meteohub,2013-01-23 23:47:00,
2013-01-23 15:52:00,59.0,8.2,-100.00,WSW,240,0.0,2.0,13,0.00,,,0.00,meteohub,2013-01-23 23:52:00,
2013-01-23 15:57:00,59.0,8.2,-100.00,WSW,240,0.0,2.0,13,0.00,,,0.00,meteohub,2013-01-23 23:57:00,
2013-01-23 16:02:00,59.0,14.2,-100.00,WSW,240,0.0,0.0,17,0.00,,,0.00,meteohub,2013-01-24 00:02:00,
2013-01-23 16:07:00,59.2,11.5,-100.00,WSW,240,0.0,0.0,15,0.00,,,0.00,meteohub,2013-01-24 00:07:00,
2013-01-23 16:12:00,59.2,12.9,-100.00,WSW,240,0.0,0.0,16,0.00,,,0.00,meteohub,2013-01-24 00:12:00,
2013-01-23 16:17:00,59.4,10.2,-100.00,WSW,240,0.0,0.0,14,0.00,,,0.00,meteohub,2013-01-24 00:17:00,
2013-01-23 16:22:00,59.2,10.0,-100.00,WSW,240,0.0,1.0,14,0.00,,,0.00,meteohub,2013-01-24 00:22:00,
2013-01-23 16:27:00,59.0,9.9,-100.00,WSW,240,1.0,2.0,14,0.00,,,0.00,meteohub,2013-01-24 00:27:00,
2013-01-23 16:32:00,59.2,10.0,-100.00,WSW,240,0.0,2.0,14,0.00,,,0.00,meteohub,2013-01-24 00:32:00,
2013-01-23 16:37:00,59.0,9.9,-100.00,WSW,240,0.0,2.0,14,0.00,,,0.00,meteohub,2013-01-24 00:37:00,
2013-01-23 16:42:00,59.0,9.9,-100.00,WSW,240,0.0,2.0,14,0.00,,,0.00,meteohub,2013-01-24 00:42:00,
2013-01-23 16:47:00,58.8,9.7,-100.00,WSW,240,0.0,1.0,14,0.00,,,0.00,meteohub,2013-01-24 00:47:00,
2013-01-23 16:52:00,58.8,9.7,-100.00,WSW,240,0.0,2.0,14,0.00,,,0.00,meteohub,2013-01-24 00:52:00,
2013-01-23 16:57:00,58.6,11.1,-100.00,WSW,240,3.0,3.0,15,0.00,,,0.00,meteohub,2013-01-24 00:57:00,
2013-01-23 17:02:00,58.6,12.6,-100.00,WSW,240,0.0,3.0,16,0.00,,,0.00,meteohub,2013-01-24 01:02:00,
2013-01-23 17:07:00,58.6,11.1,-100.00,WSW,240,0.0,3.0,15,0.00,,,0.00,meteohub,2013-01-24 01:07:00,
2013-01-23 17:12:00,58.6,11.1,-100.00,WSW,240,0.0,3.0,15,0.00,,,0.00,meteohub,2013-01-24 01:12:00,
2013-01-23 17:17:00,58.5,10.9,-100.00,WSW,240,3.0,3.0,15,0.00,,,0.00,meteohub,2013-01-24 01:17:00,
2013-01-23 17:22:00,58.5,10.9,-100.00,WSW,240,0.0,3.0,15,0.00,,,0.00,meteohub,2013-01-24 01:22:00,
2013-01-23 17:27:00,58.3,10.8,-100.00,WSW,240,1.0,3.0,15,0.00,,,0.00,meteohub,2013-01-24 01:27:00,
2013-01-23 17:32:00,58.1,10.6,-100.00,WSW,240,2.0,3.0,15,0.00,,,0.00,meteohub,2013-01-24 01:32:00,
2013-01-23 17:37:00,57.9,10.6,-100.00,WSW,240,1.0,2.0,15,0.00,,,0.00,meteohub,2013-01-24 01:37:00,
2013-01-23 17:42:00,57.9,10.6,-100.00,WSW,240,0.0,3.0,15,0.00,,,0.00,meteohub,2013-01-24 01:42:00,
2013-01-23 17:47:00,57.9,10.6,-100.00,WSW,240,0.0,3.0,15,0.00,,,0.00,meteohub,2013-01-24 01:47:00,
2013-01-23 17:52:00,57.7,11.8,-100.00,WSW,240,0.0,3.0,16,0.00,,,0.00,meteohub,2013-01-24 01:52:00,
2013-01-23 17:57:00,57.6,11.7,-100.00,WSW,240,1.0,2.0,16,0.00,,,0.00,meteohub,2013-01-24 01:57:00,
2013-01-23 18:02:00,57.6,11.7,-100.00,WSW,240,2.0,2.0,16,0.00,,,0.00,meteohub,2013-01-24 02:02:00,
2013-01-23 18:07:00,57.4,11.5,-100.00,WSW,240,2.0,3.0,16,0.00,,,0.00,meteohub,2013-01-24 02:07:00,
2013-01-23 18:12:00,57.4,11.5,-100.00,WSW,240,3.0,4.0,16,0.00,,,0.00,meteohub,2013-01-24 02:12:00,
2013-01-23 18:17:00,57.4,11.5,-100.00,WSW,240,4.0,4.0,16,0.00,,,0.00,meteohub,2013-01-24 02:17:00,
2013-01-23 18:22:00,57.4,11.5,-100.00,WSW,240,4.0,4.0,16,0.00,,,0.00,meteohub,2013-01-24 02:22:00,
2013-01-23 18:27:00,57.4,11.5,-100.00,WSW,240,4.0,4.0,16,0.00,,,0.00,meteohub,2013-01-24 02:27:00,
2013-01-23 18:32:00,57.2,11.5,-100.00,WSW,240,4.0,4.0,16,0.00,,,0.00,meteohub,2013-01-24 02:32:00,
2013-01-23 18:37:00,57.4,11.5,-100.00,WSW,240,2.0,5.0,16,0.00,,,0.00,meteohub,2013-01-24 02:37:00,
2013-01-23 18:42:00,57.4,11.5,-100.00,WSW,240,2.0,5.0,16,0.00,,,0.00,meteohub,2013-01-24 02:42:00,
2013-01-23 18:47:00,57.4,11.5,-100.00,WSW,240,2.0,5.0,16,0.00,,,0.00,meteohub,2013-01-24 02:47:00,
2013-01-23 18:52:00,57.4,12.9,-100.00,WSW,240,0.0,4.0,17,0.00,,,0.00,meteohub,2013-01-24 02:52:00,
2013-01-23 18:57:00,57.0,12.6,-100.00,WSW,240,3.0,4.0,17,0.00,,,0.00,meteohub,2013-01-24 02:57:00,
2013-01-23 19:02:00,56.8,11.1,-100.00,WSW,240,2.0,3.0,16,0.00,,,0.00,meteohub,2013-01-24 03:02:00,
2013-01-23 19:07:00,56.8,11.1,-100.00,WSW,240,3.0,3.0,16,0.00,,,0.00,meteohub,2013-01-24 03:07:00,
2013-01-23 19:12:00,57.0,11.3,-100.00,WSW,240,1.0,5.0,16,0.00,,,0.00,meteohub,2013-01-24 03:12:00,
2013-01-23 19:17:00,56.8,12.4,-100.00,WSW,240,1.0,5.0,17,0.00,,,0.00,meteohub,2013-01-24 03:17:00,
2013-01-23 19:22:00,56.8,12.4,-100.00,WSW,240,0.0,5.0,17,0.00,,,0.00,meteohub,2013-01-24 03:22:00,
2013-01-23 19:27:00,56.7,12.4,-100.00,WSW,240,0.0,3.0,17,0.00,,,0.00,meteohub,2013-01-24 03:27:00,
2013-01-23 19:32:00,56.7,13.6,-100.00,WSW,240,0.0,3.0,18,0.00,,,0.00,meteohub,2013-01-24 03:32:00,
2013-01-23 19:37:00,56.5,14.7,-100.00,WSW,240,2.0,2.0,19,0.00,,,0.00,meteohub,2013-01-24 03:37:00,
2013-01-23 19:42:00,56.5,13.5,-100.00,WSW,240,0.0,3.0,18,0.00,,,0.00,meteohub,2013-01-24 03:42:00,
2013-01-23 19:47:00,56.3,14.5,-100.00,WSW,240,0.0,3.0,19,0.00,,,0.00,meteohub,2013-01-24 03:47:00,
2013-01-23 19:52:00,56.1,14.4,-100.00,WSW,240,3.0,3.0,19,0.00,,,0.00,meteohub,2013-01-24 03:52:00,
2013-01-23 19:57:00,55.9,14.2,-100.00,WSW,240,0.0,3.0,19,0.00,,,0.00,meteohub,2013-01-24 03:57:00,
2013-01-23 20:02:00,55.8,14.2,-100.00,WSW,240,0.0,3.0,19,0.00,,,0.00,meteohub,2013-01-24 04:02:00,
2013-01-23 20:07:00,55.8,14.2,-100.00,WSW,240,0.0,3.0,19,0.00,,,0.00,meteohub,2013-01-24 04:07:00,
2013-01-23 20:12:00,55.6,14.0,-100.00,WSW,240,2.0,2.0,19,0.00,,,0.00,meteohub,2013-01-24 04:12:00,
2013-01-23 20:17:00,55.2,14.9,-100.00,WSW,240,4.0,4.0,20,0.00,,,0.00,meteohub,2013-01-24 04:17:00,
2013-01-23 20:22:00,55.0,12.2,-100.00,SE,124,5.0,5.0,18,0.00,,,0.00,meteohub,2013-01-24 04:22:00,
2013-01-23 20:27:00,54.7,12.0,-100.00,ESE,123,3.0,6.0,18,0.00,,,0.00,meteohub,2013-01-24 04:27:00,
2013-01-23 20:32:00,54.7,12.0,-100.00,ESE,123,3.0,6.0,18,0.00,,,0.00,meteohub,2013-01-24 04:32:00,
2013-01-23 20:37:00,54.7,12.0,-100.00,ESE,123,3.0,6.0,18,0.00,,,0.00,meteohub,2013-01-24 04:37:00,
2013-01-23 20:42:00,54.3,10.4,-100.00,ESE,122,1.0,5.0,17,0.00,,,0.00,meteohub,2013-01-24 04:42:00,
2013-01-23 20:47:00,54.3,11.7,-100.00,ESE,119,4.0,5.0,18,0.00,,,0.00,meteohub,2013-01-24 04:47:00,
2013-01-23 20:52:00,54.1,11.5,-100.00,ESE,116,2.0,5.0,18,0.00,,,0.00,meteohub,2013-01-24 04:52:00,
2013-01-23 20:57:00,54.0,11.5,-100.00,ESE,113,1.0,5.0,18,0.00,,,0.00,meteohub,2013-01-24 04:57:00,
2013-01-23 21:01:00,54.0,11.5,-100.00,ESE,113,4.0,5.0,18,0.00,,,0.00,meteohub,2013-01-24 05:01:00,
2013-01-23 21:03:00,54.0,11.5,-100.00,East,88,2.0,5.0,18,0.00,,,0.00,meteohub,2013-01-24 05:03:00,
2013-01-23 21:08:00,54.0,11.5,-100.00,East,88,0.0,7.0,18,0.00,,,0.00,meteohub,2013-01-24 05:08:00,
2013-01-23 21:13:00,54.0,12.6,-100.00,East,88,2.0,7.0,19,0.00,,,0.00,meteohub,2013-01-24 05:13:00,
2013-01-23 21:18:00,54.0,11.5,-100.00,East,88,1.0,7.0,18,0.00,,,0.00,meteohub,2013-01-24 05:18:00,
2013-01-23 21:23:00,54.0,14.9,-100.00,East,88,2.0,5.0,21,0.00,,,0.00,meteohub,2013-01-24 05:23:00,
2013-01-23 21:28:00,54.0,13.8,-100.00,East,89,5.0,5.0,20,0.00,,,0.00,meteohub,2013-01-24 05:28:00,
2013-01-23 21:33:00,54.1,12.7,-100.00,East,89,3.0,5.0,19,0.00,,,0.00,meteohub,2013-01-24 05:33:00,
2013-01-23 21:38:00,54.3,15.3,-100.00,SSE,148,5.0,5.0,21,0.00,,,0.00,meteohub,2013-01-24 05:38:00,
2013-01-23 21:43:00,54.3,12.9,-100.00,SSE,153,3.0,7.0,19,0.00,,,0.00,meteohub,2013-01-24 05:43:00,
2013-01-23 21:48:00,54.5,13.1,-100.00,SSE,153,0.0,7.0,19,0.00,,,0.00,meteohub,2013-01-24 05:48:00,
2013-01-23 21:53:00,54.5,14.2,-100.00,SSE,153,5.0,7.0,20,0.00,,,0.00,meteohub,2013-01-24 05:53:00,
2013-01-23 21:58:00,54.7,13.3,-100.00,SSE,161,1.0,5.0,19,0.00,,,0.00,meteohub,2013-01-24 05:58:00,
2013-01-23 22:03:00,54.7,13.3,-100.00,SSE,165,0.0,9.0,19,0.00,,,0.00,meteohub,2013-01-24 06:03:00,
2013-01-23 22:08:00,54.5,15.3,-100.00,SE,146,2.0,9.0,21,0.00,,,0.00,meteohub,2013-01-24 06:08:00,
2013-01-23 22:13:00,54.3,18.3,-100.00,SE,146,0.0,8.0,24,0.00,,,0.00,meteohub,2013-01-24 06:13:00,
2013-01-23 22:18:00,54.3,20.1,-100.00,SE,146,1.0,8.0,26,0.00,,,0.00,meteohub,2013-01-24 06:18:00,
2013-01-23 22:23:00,54.1,23.4,-100.00,ESE,123,5.0,6.0,30,0.00,,,0.00,meteohub,2013-01-24 06:23:00,
2013-01-23 22:28:00,54.0,21.6,-100.00,East,93,7.0,7.0,28,0.00,,,0.00,meteohub,2013-01-24 06:28:00,
2013-01-23 22:33:00,53.4,20.3,-100.00,East,92,5.0,8.0,27,0.00,,,0.00,meteohub,2013-01-24 06:33:00,
2013-01-23 22:38:00,53.4,19.4,-100.00,East,92,3.0,8.0,26,0.00,,,0.00,meteohub,2013-01-24 06:38:00,
2013-01-23 22:43:00,53.2,21.0,-100.00,East,92,3.0,7.0,28,0.00,,,0.00,meteohub,2013-01-24 06:43:00,
2013-01-23 22:48:00,52.9,21.6,-100.00,East,88,5.0,7.0,29,0.00,,,0.00,meteohub,2013-01-24 06:48:00,
2013-01-23 22:53:00,52.7,22.1,-100.00,East,82,6.0,6.0,30,0.00,,,0.00,meteohub,2013-01-24 06:53:00,
2013-01-23 22:58:00,52.3,23.4,-100.00,ENE,59,7.0,7.0,32,0.00,,,0.00,meteohub,2013-01-24 06:58:00,
2013-01-23 23:04:00,52.0,24.4,-100.00,NNW,329,5.0,7.0,34,0.00,,,0.00,meteohub,2013-01-24 07:04:00,
2013-01-23 23:09:00,51.6,26.8,-100.00,NNW,328,5.0,7.0,38,0.00,,,0.00,meteohub,2013-01-24 07:09:00,
2013-01-23 23:14:00,51.4,26.1,-100.00,NNW,328,4.0,7.0,37,0.00,,,0.00,meteohub,2013-01-24 07:14:00,
2013-01-23 23:19:00,51.4,26.6,-100.00,NNW,328,3.0,7.0,38,0.00,,,0.00,meteohub,2013-01-24 07:19:00,
2013-01-23 23:24:00,51.4,29.1,-100.00,NNW,328,2.0,6.0,42,0.00,,,0.00,meteohub,2013-01-24 07:24:00,
2013-01-23 23:29:00,51.3,29.5,-100.00,NNW,328,4.0,6.0,43,0.00,,,0.00,meteohub,2013-01-24 07:29:00,
2013-01-23 23:34:00,51.1,29.3,-100.00,NNW,328,3.0,5.0,43,0.00,,,0.00,meteohub,2013-01-24 07:34:00,
2013-01-23 23:39:00,50.9,29.1,-100.00,NNW,329,2.0,6.0,43,0.00,,,0.00,meteohub,2013-01-24 07:39:00,
2013-01-23 23:44:00,50.7,30.7,-100.00,NNW,329,1.0,6.0,46,0.00,,,0.00,meteohub,2013-01-24 07:44:00,
2013-01-23 23:49:00,50.7,32.2,-100.00,NNW,329,0.0,6.0,49,0.00,,,0.00,meteohub,2013-01-24 07:49:00,
2013-01-23 23:54:00,50.7,32.2,-100.00,NNW,329,0.0,5.0,49,0.00,,,0.00,meteohub,2013-01-24 07:54:00,
2013-01-23 23:59:00,50.5,30.6,-100.00,NNW,329,0.0,4.0,46,0.00,,,0.00,meteohub,2013-01-24 07:59:00,